• In Hungary
  • List of Countries
  • For 7 days
  • Water Temperature
  • Satellite Maps
  • Weather Map
  • News
  • Weather Widgets
  • user-avatar
    Login

    Hourly Weather Mazlovo

    Today, 27 May, Sunday

    Time Temperature Precipitation Wind Pressure Humidity
    00:00 +12°C° 0 mm 2 mps 759 mmHg 73%
    01:00 +10°C° 0 mm 3 mps 759 mmHg 74%
    02:00 +9°C° 0 mm 2 mps 758 mmHg 83%
    03:00 +9°C° 0 mm 2 mps 758 mmHg 81%
    04:00 +10°C° 0 mm 3 mps 758 mmHg 79%
    05:00 +11°C° 0 mm 4 mps 757 mmHg 76%
    06:00 +13°C° 0 mm 4 mps 757 mmHg 72%
    07:00 +15°C° 0 mm 4 mps 756 mmHg 69%
    08:00 +18°C° 0 mm 4 mps 756 mmHg 65%
    09:00 +20°C° 0 mm 5 mps 755 mmHg 60%
    10:00 +22°C° 0 mm 5 mps 755 mmHg 56%
    11:00 +23°C° 0 mm 5 mps 755 mmHg 52%
    12:00 +23°C° 0 mm 5 mps 754 mmHg 52%
    13:00 +25°C° 0 mm 5 mps 754 mmHg 53%
    14:00 +25°C° 0 mm 5 mps 753 mmHg 54%
    15:00 +23°C° 0.5 mm 4 mps 753 mmHg 60%
    16:00 +22°C° 0.5 mm 4 mps 753 mmHg 67%
    17:00 +21°C° 0.5 mm 4 mps 752 mmHg 74%
    18:00 +19°C° 0.2 mm 4 mps 753 mmHg 75%
    19:00 +18°C° 0.2 mm 3 mps 753 mmHg 76%
    20:00 +16°C° 0.2 mm 3 mps 754 mmHg 78%
    21:00 +13°C° 0 mm 3 mps 754 mmHg 74%
    22:00 +12°C° 0 mm 3 mps 755 mmHg 69%
    23:00 +10°C° 0 mm 3 mps 756 mmHg 65%

    Tomorrow, 28 May, Monday

    Time Temperature Precipitation Wind Pressure Humidity
    00:00 +9°C° 0 mm 3 mps 757 mmHg 63%
    01:00 +8°C° 0 mm 3 mps 757 mmHg 60%
    02:00 +7°C° 0 mm 3 mps 758 mmHg 58%
    03:00 +7°C° 0 mm 3 mps 759 mmHg 58%
    04:00 +7°C° 0 mm 3 mps 759 mmHg 58%
    05:00 +7°C° 0 mm 3 mps 760 mmHg 59%
    06:00 +9°C° 0 mm 3 mps 760 mmHg 54%
    07:00 +11°C° 0 mm 3 mps 761 mmHg 50%
    08:00 +12°C° 0 mm 3 mps 761 mmHg 46%
    09:00 +13°C° 0 mm 3 mps 761 mmHg 44%
    10:00 +14°C° 0 mm 3 mps 761 mmHg 42%
    11:00 +16°C° 0 mm 3 mps 761 mmHg 39%
    12:00 +16°C° 0 mm 3 mps 761 mmHg 39%
    13:00 +17°C° 0 mm 3 mps 761 mmHg 38%
    14:00 +18°C° 0 mm 3 mps 761 mmHg 38%
    15:00 +17°C° 0 mm 3 mps 761 mmHg 40%
    16:00 +17°C° 0 mm 3 mps 761 mmHg 41%
    17:00 +17°C° 0 mm 2 mps 761 mmHg 43%
    18:00 +15°C° 0 mm 2 mps 761 mmHg 49%
    19:00 +13°C° 0 mm 1 mps 760 mmHg 56%
    20:00 +10°C° 0 mm 0 mps 760 mmHg 62%
    21:00 +11°C° 0 mm 1 mps 761 mmHg 63%
    22:00 +10°C° 0 mm 1 mps 761 mmHg 64%
    23:00 +9°C° 0 mm 2 mps 761 mmHg 65%

    Day after tomorrow, 29 May, Tuesday

    Time Temperature Precipitation Wind Pressure Humidity
    00:00 +8°C° 0 mm 2 mps 761 mmHg 66%
    01:00 +8°C° 0 mm 2 mps 761 mmHg 68%
    02:00 +7°C° 0 mm 2 mps 761 mmHg 69%
    03:00 +8°C° 0 mm 2 mps 760 mmHg 69%
    04:00 +9°C° 0 mm 2 mps 760 mmHg 68%
    05:00 +10°C° 0 mm 3 mps 760 mmHg 67%
    06:00 +12°C° 0 mm 3 mps 760 mmHg 61%
    07:00 +14°C° 0 mm 3 mps 759 mmHg 55%
    08:00 +17°C° 0 mm 3 mps 759 mmHg 50%
    09:00 +18°C° 0 mm 3 mps 759 mmHg 46%
    10:00 +20°C° 0 mm 4 mps 758 mmHg 43%
    11:00 +21°C° 0 mm 4 mps 757 mmHg 40%
    12:00 +21°C° 0 mm 4 mps 757 mmHg 40%
    13:00 +22°C° 0 mm 4 mps 756 mmHg 39%
    14:00 +23°C° 0 mm 4 mps 755 mmHg 39%
    15:00 +22°C° 0 mm 4 mps 755 mmHg 42%
    16:00 +22°C° 0 mm 4 mps 754 mmHg 45%
    17:00 +22°C° 0 mm 3 mps 753 mmHg 48%
    18:00 +20°C° 0 mm 3 mps 752 mmHg 55%
    19:00 +18°C° 0 mm 3 mps 752 mmHg 62%
    20:00 +16°C° 0 mm 3 mps 751 mmHg 69%
    21:00 +16°C° 0 mm 3 mps 751 mmHg 71%
    22:00 +14°C° 0 mm 3 mps 751 mmHg 73%
    23:00 +14°C° 0 mm 3 mps 750 mmHg 75%

    30 May, Wednesday

    Time Temperature Precipitation Wind Pressure Humidity
    00:00 +14°C° 0 mm 3 mps 750 mmHg 77%
    01:00 +14°C° 0 mm 3 mps 749 mmHg 79%
    02:00 +13°C° 0 mm 4 mps 749 mmHg 82%
    03:00 +14°C° 0 mm 4 mps 748 mmHg 81%
    04:00 +15°C° 0 mm 4 mps 748 mmHg 80%
    05:00 +15°C° 0 mm 5 mps 747 mmHg 79%
    06:00 +17°C° 0 mm 5 mps 747 mmHg 72%
    07:00 +20°C° 0 mm 6 mps 746 mmHg 66%
    08:00 +22°C° 0 mm 7 mps 746 mmHg 59%
    09:00 +23°C° 0 mm 7 mps 745 mmHg 55%
    10:00 +24°C° 0 mm 7 mps 745 mmHg 51%
    11:00 +26°C° 0 mm 8 mps 744 mmHg 46%
    12:00 +26°C° 0 mm 8 mps 744 mmHg 45%
    13:00 +27°C° 0 mm 7 mps 743 mmHg 44%
    14:00 +27°C° 0 mm 7 mps 743 mmHg 43%
    15:00 +26°C° 0 mm 6 mps 743 mmHg 46%
    16:00 +25°C° 0 mm 5 mps 743 mmHg 49%
    17:00 +23°C° 0 mm 4 mps 743 mmHg 52%
    18:00 +21°C° 0 mm 4 mps 743 mmHg 56%
    19:00 +19°C° 0 mm 3 mps 743 mmHg 60%
    20:00 +17°C° 0 mm 2 mps 743 mmHg 64%
    21:00 +15°C° 0 mm 2 mps 743 mmHg 64%
    22:00 +14°C° 0 mm 2 mps 743 mmHg 65%
    23:00 +12°C° 0 mm 2 mps 743 mmHg 66%

    31 May, Thursday

    Time Temperature Precipitation Wind Pressure Humidity
    00:00 +12°C° 0 mm 2 mps 743 mmHg 68%
    01:00 +10°C° 0 mm 2 mps 743 mmHg 70%
    02:00 +9°C° 0 mm 2 mps 743 mmHg 71%
    03:00 +10°C° 0 mm 2 mps 744 mmHg 72%
    04:00 +10°C° 0 mm 3 mps 744 mmHg 72%
    05:00 +10°C° 0 mm 4 mps 744 mmHg 72%
    06:00 +11°C° 0 mm 4 mps 745 mmHg 69%
    07:00 +12°C° 0 mm 4 mps 745 mmHg 66%
    08:00 +13°C° 0 mm 5 mps 746 mmHg 63%
    09:00 +13°C° 0 mm 5 mps 746 mmHg 59%
    10:00 +14°C° 0 mm 5 mps 746 mmHg 54%
    11:00 +14°C° 0 mm 5 mps 746 mmHg 50%
    12:00 +15°C° 0 mm 5 mps 747 mmHg 47%
    13:00 +15°C° 0 mm 5 mps 747 mmHg 45%
    14:00 +15°C° 0 mm 5 mps 747 mmHg 42%
    15:00 +14°C° 0 mm 4 mps 747 mmHg 42%
    16:00 +14°C° 0 mm 4 mps 747 mmHg 42%
    17:00 +13°C° 0 mm 4 mps 747 mmHg 42%
    18:00 +11°C° 0 mm 4 mps 748 mmHg 47%
    19:00 +9°C° 0 mm 3 mps 748 mmHg 52%
    20:00 +8°C° 0 mm 2 mps 748 mmHg 57%
    21:00 +7°C° 0 mm 2 mps 748 mmHg 58%
    22:00 +6°C° 0 mm 2 mps 749 mmHg 59%
    23:00 +4°C° 0 mm 3 mps 749 mmHg 59%

    1 June, Friday

    Time Temperature Precipitation Wind Pressure Humidity
    00:00 +4°C° 0 mm 3 mps 749 mmHg 61%
    01:00 +3°C° 0 mm 3 mps 750 mmHg 62%
    02:00 +3°C° 0 mm 3 mps 750 mmHg 63%
    03:00 +3°C° 0 mm 3 mps 750 mmHg 62%
    04:00 +4°C° 0 mm 3 mps 750 mmHg 61%
    05:00 +4°C° 0 mm 3 mps 750 mmHg 60%
    06:00 +5°C° 0 mm 4 mps 751 mmHg 56%
    07:00 +6°C° 0 mm 4 mps 751 mmHg 51%
    08:00 +8°C° 0 mm 4 mps 751 mmHg 47%
    09:00 +8°C° 0 mm 4 mps 751 mmHg 46%
    10:00 +8°C° 0 mm 4 mps 751 mmHg 46%
    11:00 +8°C° 0 mm 4 mps 751 mmHg 46%
    12:00 +8°C° 0 mm 4 mps 751 mmHg 46%
    13:00 +10°C° 0 mm 4 mps 751 mmHg 46%
    14:00 +10°C° 0 mm 4 mps 751 mmHg 45%
    15:00 +10°C° 0 mm 4 mps 751 mmHg 46%
    16:00 +10°C° 0 mm 4 mps 751 mmHg 46%
    17:00 +8°C° 0 mm 4 mps 751 mmHg 47%
    18:00 +8°C° 0 mm 3 mps 751 mmHg 52%
    19:00 +7°C° 0 mm 3 mps 751 mmHg 56%
    20:00 +6°C° 0 mm 2 mps 751 mmHg 61%
    21:00 +5°C° 0 mm 2 mps 751 mmHg 64%
    22:00 +4°C° 0 mm 2 mps 751 mmHg 66%
    23:00 +3°C° 0 mm 2 mps 751 mmHg 69%
    Show more